ONEWEB-0282 (49000 NORAD) Tracking and Keplerian Element Data

This shows tracking and keplerian element data for the satellite.

Feedback or suggestion? Click here.




ElementValue
Catalog49000
NameONEWEB-0282
Epoch Orbit569
Epoch Day211.25001157
Epoch Year2021
RAAN227.3829
Inclination87.4684
Eccentricity0.0013169
Argument of Perigee146.1078
Mean Anonmoly176.9506
Mean Motion15.01306872
Decay Rate-0.01465259
L11 49000U 21060AK 21211.25001157 -.01465259 00000-0 -12459+0 0 9994
L22 49000 87.4684 227.3829 0013169 146.1078 176.9506 15.01306872 5699

Live tracking and technical data element details for ONEWEB-0282 (NORAD 49000). ONEWEB-0282 can be tracked NOW for your location showing map with azimuth and elevation plus other details from your city location.

Track the satellite on the map from your city or location and see movement details for azimuth, elevation, latitude, longitude, range, height, and movement on the map or in text.







IsCatalogInMostPopularTable: catalog: 49000, numindb: 5
Update: records affected: 1



GetName: 49000 ONEWEB-0282

Hit Count: updated at: Sat, 31 Jul 2021 15:59:57 GMT